| time (UTC) | temp F | wind direction | speed MPH | gust MPH | rain 1hr in | rain 24hr in | rain mn in | humidity % | barometer mb |
| 20260506051304 | 60 | 270 | 20.0 | 35.0 | 0.00 | 0.03 | 0.03 | 59 | 1012.9 |
| 20260506043803 | 60 | 275 | 14.0 | 37.0 | 0.00 | 0.03 | 0.03 | 59 | 1012.8 |
| 20260506043303 | 60 | 278 | 16.0 | 31.0 | 0.00 | 0.03 | 0.03 | 59 | 1012.7 |
| 20260506042804 | 60 | 279 | 18.0 | 32.0 | 0.01 | 0.03 | 0.03 | 59 | 1012.6 |
| 20260506041804 | 60 | 262 | 14.0 | 33.0 | 0.01 | 0.03 | 0.03 | 60 | 1012.6 |
| 20260506041305 | 60 | 280 | 15.0 | 25.0 | 0.01 | 0.03 | 0.03 | 60 | 1012.6 |
| 20260506034303 | 60 | 275 | 17.0 | 32.0 | 0.01 | 0.03 | 0.03 | 56 | 1012.1 |
| 20260506033804 | 60 | 289 | 17.0 | 29.0 | 0.01 | 0.03 | 0.03 | 58 | 1012.1 |
| 20260506033304 | 61 | 258 | 16.0 | 31.0 | 0.00 | 0.03 | 0.03 | 58 | 1011.8 |
| 20260506032803 | 61 | 262 | 18.0 | 33.0 | 0.00 | 0.03 | 0.03 | 55 | 1011.9 |
| 20260506032306 | 61 | 280 | 18.0 | 32.0 | 0.00 | 0.02 | 0.02 | 56 | 1011.9 |
| 20260506031804 | 61 | 278 | 16.0 | 35.0 | 0.00 | 0.02 | 0.02 | 56 | 1011.6 |
| 20260506031304 | 61 | 261 | 18.0 | 33.0 | 0.00 | 0.02 | 0.02 | 56 | 1011.6 |
| 20260506030804 | 61 | 254 | 15.0 | 30.0 | 0.00 | 0.02 | 0.02 | 56 | 1011.7 |
| 20260506030304 | 61 | 274 | 14.0 | 29.0 | 0.00 | 0.02 | 0.02 | 55 | 1011.6 |
| 20260506015306 | 64 | 277 | 15.0 | 32.0 | 0.00 | 0.02 | 0.02 | 53 | 1010.9 |
| 20260506013804 | 64 | 295 | 15.0 | 31.0 | 0.00 | 0.02 | 0.02 | 53 | 1010.9 |
| 20260506013303 | 64 | 280 | 15.0 | 36.0 | 0.00 | 0.02 | 0.02 | 53 | 1010.9 |
| 20260506012804 | 64 | 287 | 15.0 | 32.0 | 0.00 | 0.02 | 0.02 | 52 | 1011.0 |
| 20260506012307 | 64 | 278 | 19.0 | 35.0 | 0.00 | 0.02 | 0.02 | 52 | 1010.8 |
| 20260506011803 | 65 | 273 | 15.0 | 29.0 | 0.00 | 0.02 | 0.02 | 52 | 1010.8 |
| 20260506010804 | 65 | 281 | 17.0 | 36.0 | 0.00 | 0.02 | 0.02 | 52 | 1010.8 |
| 20260506010304 | 65 | 267 | 16.0 | 29.0 | 0.00 | 0.01 | 0.01 | 52 | 1010.9 |
| 20260506005803 | 65 | 251 | 17.0 | 30.0 | 0.00 | 0.01 | 0.01 | 51 | 1011.0 |
| 20260506005305 | 65 | 268 | 17.0 | 32.0 | 0.00 | 0.01 | 0.01 | 51 | 1010.9 |
| 20260506004803 | 65 | 274 | 16.0 | 30.0 | 0.00 | 0.01 | 0.01 | 51 | 1011.0 |
| 20260506003803 | 65 | 280 | 17.0 | 29.0 | 0.00 | 0.01 | 0.01 | 51 | 1010.9 |
| 20260506003305 | 65 | 280 | 15.0 | 31.0 | 0.00 | 0.01 | 0.01 | 51 | 1010.8 |
| 20260506002306 | 66 | 277 | 20.0 | 33.0 | 0.00 | 0.01 | 0.01 | 51 | 1010.7 |
| 20260506001804 | 66 | 284 | 17.0 | 31.0 | 0.00 | 0.01 | 0.01 | 51 | 1011.0 |
| 20260506000804 | 66 | 263 | 18.0 | 33.0 | 0.00 | 0.01 | 0.01 | 51 | 1010.8 |
| 20260506000304 | 66 | 275 | 16.0 | 28.0 | 0.00 | 0.01 | 0.01 | 51 | 1010.9 |
| 20260505235305 | 66 | 292 | 17.0 | 28.0 | 0.00 | 0.01 | 0.01 | 50 | 1010.9 |
| 20260505234804 | 66 | 271 | 17.0 | 31.0 | 0.00 | 0.01 | 0.01 | 51 | 1011.0 |
| 20260505234303 | 66 | 270 | 18.0 | 30.0 | 0.00 | 0.01 | 0.01 | 51 | 1011.0 |
| 20260505233804 | 67 | 273 | 13.0 | 24.0 | 0.00 | 0.01 | 0.01 | 50 | 1011.1 |
| 20260505233303 | 66 | 274 | 18.0 | 33.0 | 0.00 | 0.01 | 0.01 | 50 | 1011.1 |
| 20260505232803 | 66 | 277 | 15.0 | 30.0 | 0.00 | 0.01 | 0.01 | 50 | 1011.3 |
| 20260505232305 | 66 | 272 | 19.0 | 33.0 | 0.00 | 0.01 | 0.01 | 50 | 1011.1 |
| 20260505231804 | 66 | 275 | 20.0 | 31.0 | 0.00 | 0.01 | 0.01 | 50 | 1011.1 |
| 20260505231304 | 66 | 266 | 16.0 | 30.0 | 0.00 | 0.01 | 0.01 | 50 | 1011.2 |
| 20260505230804 | 66 | 288 | 19.0 | 31.0 | 0.00 | 0.01 | 0.01 | 50 | 1011.2 |
| 20260505225804 | 67 | 267 | 16.0 | 26.0 | 0.00 | 0.01 | 0.01 | 50 | 1011.3 |
| 20260505225305 | 67 | 290 | 12.0 | 24.0 | 0.00 | 0.01 | 0.01 | 49 | 1011.3 |
| 20260505224805 | 67 | 273 | 13.0 | 21.0 | 0.00 | 0.01 | 0.01 | 49 | 1011.3 |
| 20260505202306 | 65 | 259 | 16.0 | 30.0 | 0.00 | 0.01 | 0.01 | 52 | 1012.3 |
| 20260505201803 | 65 | 279 | 14.0 | 30.0 | 0.00 | 0.01 | 0.01 | 52 | 1012.3 |
| 20260505201304 | 64 | 277 | 14.0 | 29.0 | 0.00 | 0.01 | 0.01 | 52 | 1012.3 |
| 20260505200804 | 64 | 259 | 13.0 | 31.0 | 0.00 | 0.01 | 0.01 | 52 | 1012.4 |
| 20260505200304 | 64 | 269 | 16.0 | 29.0 | 0.00 | 0.01 | 0.01 | 52 | 1012.4 |
| 20260505195804 | 64 | 260 | 16.0 | 31.0 | 0.00 | 0.01 | 0.01 | 53 | 1012.5 |
| 20260505194304 | 64 | 268 | 14.0 | 26.0 | 0.00 | 0.01 | 0.01 | 53 | 1012.6 |
| 20260505193804 | 63 | 292 | 12.0 | 35.0 | 0.00 | 0.01 | 0.01 | 53 | 1012.6 |
| 20260505193304 | 63 | 269 | 13.0 | 30.0 | 0.00 | 0.01 | 0.01 | 54 | 1012.8 |
| 20260505192803 | 63 | 285 | 14.0 | 35.0 | 0.00 | 0.01 | 0.01 | 54 | 1012.9 |
| 20260505192305 | 63 | 275 | 16.0 | 26.0 | 0.00 | 0.01 | 0.01 | 54 | 1012.8 |
| 20260505191804 | 63 | 277 | 13.0 | 28.0 | 0.00 | 0.01 | 0.01 | 54 | 1012.7 |
| 20260505190804 | 62 | 286 | 15.0 | 26.0 | 0.00 | 0.01 | 0.01 | 54 | 1012.7 |
| 20260505185804 | 62 | 271 | 14.0 | 25.0 | 0.00 | 0.01 | 0.01 | 54 | 1012.8 |
| 20260505185305 | 62 | 278 | 14.0 | 29.0 | 0.00 | 0.01 | 0.01 | 56 | 1012.9 |
| 20260505184804 | 62 | 280 | 17.0 | 31.0 | 0.00 | 0.01 | 0.01 | 55 | 1012.9 |
| 20260505184304 | 62 | 283 | 15.0 | 30.0 | 0.00 | 0.01 | 0.01 | 55 | 1012.8 |
| 20260505183803 | 61 | 280 | 13.0 | 33.0 | 0.00 | 0.01 | 0.01 | 55 | 1013.0 |
| 20260505182306 | 61 | 267 | 14.0 | 29.0 | 0.00 | 0.01 | 0.01 | 56 | 1013.0 |
| 20260505181304 | 60 | 289 | 18.0 | 31.0 | 0.00 | 0.01 | 0.01 | 57 | 1012.9 |
| 20260505180804 | 60 | 264 | 16.0 | 29.0 | 0.00 | 0.01 | 0.01 | 58 | 1013.1 |
| 20260505180304 | 60 | 267 | 15.0 | 38.0 | 0.00 | 0.01 | 0.01 | 58 | 1013.1 |
| 20260505175305 | 60 | 290 | 17.0 | 28.0 | 0.00 | 0.01 | 0.01 | 58 | 1013.1 |
| 20260505174804 | 60 | 273 | 17.0 | 28.0 | 0.00 | 0.01 | 0.01 | 58 | 1013.2 |
| 20260505174303 | 60 | 271 | 16.0 | 29.0 | 0.00 | 0.01 | 0.01 | 59 | 1013.1 |
| 20260505173804 | 60 | 266 | 18.0 | 33.0 | 0.00 | 0.01 | 0.01 | 59 | 1013.0 |
| 20260505173304 | 60 | 279 | 15.0 | 30.0 | 0.00 | 0.01 | 0.01 | 59 | 1013.1 |
| 20260505172804 | 59 | 274 | 15.0 | 31.0 | 0.00 | 0.01 | 0.01 | 60 | 1013.1 |
| 20260505172306 | 59 | 281 | 17.0 | 31.0 | 0.00 | 0.01 | 0.01 | 60 | 1013.1 |
| 20260505171804 | 59 | 267 | 17.0 | 32.0 | 0.00 | 0.01 | 0.01 | 60 | 1013.1 |
| 20260505171304 | 59 | 266 | 14.0 | 29.0 | 0.00 | 0.01 | 0.01 | 60 | 1013.2 |
| 20260505170804 | 59 | 281 | 16.0 | 33.0 | 0.00 | 0.01 | 0.01 | 61 | 1013.0 |
| 20260505170304 | 59 | 274 | 15.0 | 25.0 | 0.00 | 0.01 | 0.01 | 61 | 1013.1 |
| 20260505165804 | 59 | 276 | 12.0 | 30.0 | 0.00 | 0.01 | 0.01 | 61 | 1013.0 |
| 20260505165306 | 58 | 273 | 17.0 | 29.0 | 0.00 | 0.01 | 0.01 | 61 | 1013.0 |
| 20260505164804 | 58 | 280 | 12.0 | 30.0 | 0.00 | 0.01 | 0.01 | 62 | 1013.0 |
| 20260505164304 | 58 | 268 | 14.0 | 32.0 | 0.00 | 0.01 | 0.01 | 62 | 1013.0 |
| 20260505163804 | 58 | 282 | 15.0 | 26.0 | 0.00 | 0.01 | 0.01 | 62 | 1013.0 |
| 20260505163304 | 58 | 264 | 16.0 | 31.0 | 0.00 | 0.01 | 0.01 | 62 | 1013.0 |
| 20260505162803 | 58 | 239 | 17.0 | 30.0 | 0.00 | 0.01 | 0.01 | 62 | 1012.8 |
| 20260505161804 | 58 | 272 | 12.0 | 23.0 | 0.00 | 0.01 | 0.01 | 62 | 1012.9 |
| 20260505161304 | 58 | 255 | 17.0 | 29.0 | 0.00 | 0.01 | 0.01 | 62 | 1012.9 |
| 20260505160805 | 58 | 246 | 18.0 | 31.0 | 0.00 | 0.01 | 0.01 | 62 | 1012.8 |
| 20260505160304 | 58 | 275 | 12.0 | 29.0 | 0.00 | 0.01 | 0.01 | 63 | 1012.9 |
| 20260505153304 | 57 | 271 | 16.0 | 31.0 | 0.00 | 0.01 | 0.01 | 63 | 1012.7 |
| 20260505152804 | 57 | 264 | 18.0 | 26.0 | 0.00 | 0.01 | 0.01 | 63 | 1012.6 |
| 20260505151804 | 57 | 277 | 15.0 | 31.0 | 0.00 | 0.01 | 0.01 | 63 | 1012.6 |
| 20260505151305 | 57 | 276 | 14.0 | 28.0 | 0.00 | 0.01 | 0.01 | 64 | 1012.5 |
| 20260505150805 | 57 | 279 | 14.0 | 32.0 | 0.00 | 0.01 | 0.01 | 64 | 1012.5 |
| 20260505150304 | 57 | 281 | 16.0 | 30.0 | 0.00 | 0.01 | 0.01 | 64 | 1012.5 |
| 20260505140304 | 56 | 270 | 14.0 | 26.0 | 0.00 | 0.01 | 0.01 | 65 | 1012.0 |
| 20260505130304 | 56 | 267 | 19.0 | 28.0 | 0.00 | 0.01 | 0.01 | 64 | 1011.5 |
| 20260505124304 | 56 | 276 | 15.0 | 28.0 | 0.00 | 0.01 | 0.01 | 65 | 1011.3 |
| 20260505123804 | 57 | 271 | 17.0 | 28.0 | 0.00 | 0.01 | 0.01 | 63 | 1011.3 |
| 20260505123304 | 57 | 268 | 18.0 | 36.0 | 0.00 | 0.01 | 0.01 | 64 | 1011.2 |
| 20260505122804 | 57 | 270 | 18.0 | 31.0 | 0.00 | 0.01 | 0.01 | 62 | 1011.1 |
| 20260505122305 | 57 | 279 | 14.0 | 31.0 | 0.00 | 0.01 | 0.01 | 63 | 1011.2 |
| 20260505121804 | 57 | 262 | 14.0 | 25.0 | 0.00 | 0.01 | 0.01 | 64 | 1011.3 |
| 20260505121303 | 57 | 266 | 15.0 | 26.0 | 0.00 | 0.01 | 0.01 | 63 | 1011.0 |
| 20260505120804 | 57 | 279 | 16.0 | 32.0 | 0.00 | 0.01 | 0.01 | 63 | 1011.1 |
| 20260505120305 | 57 | 267 | 16.0 | 32.0 | 0.00 | 0.01 | 0.01 | 63 | 1011.0 |
| 20260505115305 | 57 | 257 | 16.0 | 32.0 | 0.00 | 0.01 | 0.01 | 63 | 1011.0 |
| 20260505114804 | 57 | 268 | 14.0 | 28.0 | 0.00 | 0.01 | 0.01 | 63 | 1010.9 |
| 20260505114304 | 58 | 261 | 16.0 | 29.0 | 0.00 | 0.01 | 0.01 | 62 | 1010.9 |
| 20260505113802 | 58 | 274 | 15.0 | 30.0 | 0.00 | 0.01 | 0.01 | 62 | 1010.9 |
| 20260505113303 | 58 | 278 | 14.0 | 28.0 | 0.00 | 0.01 | 0.01 | 62 | 1010.8 |
| 20260505112803 | 58 | 287 | 18.0 | 33.0 | 0.00 | 0.00 | 0.00 | 60 | 1010.9 |
| 20260505112305 | 58 | 282 | 18.0 | 36.0 | 0.00 | 0.00 | 0.00 | 61 | 1010.8 |
| 20260505111803 | 58 | 270 | 14.0 | 31.0 | 0.00 | 0.00 | 0.00 | 61 | 1010.8 |
| 20260505111303 | 58 | 270 | 15.0 | 30.0 | 0.00 | 0.00 | 0.00 | 61 | 1010.8 |
| 20260505110803 | 58 | 280 | 14.0 | 28.0 | 0.00 | 0.00 | 0.00 | 61 | 1010.7 |
| 20260505110303 | 58 | 258 | 14.0 | 29.0 | 0.00 | 0.00 | 0.00 | 61 | 1010.7 |
| 20260505101803 | 59 | 275 | 18.0 | 31.0 | 0.00 | 0.00 | 0.00 | 59 | 1010.4 |
| 20260505101303 | 59 | 251 | 13.0 | 29.0 | 0.00 | 0.00 | 0.00 | 61 | 1010.5 |
| 20260505100803 | 59 | 276 | 17.0 | 31.0 | 0.00 | 0.00 | 0.00 | 59 | 1010.3 |
| 20260505100303 | 59 | 278 | 17.0 | 31.0 | 0.00 | 0.00 | 0.00 | 58 | 1010.4 |
| 20260505095304 | 60 | 281 | 15.0 | 29.0 | 0.00 | 0.00 | 0.00 | 59 | 1010.2 |
| 20260505094803 | 60 | 267 | 15.0 | 33.0 | 0.00 | 0.00 | 0.00 | 58 | 1010.3 |
| 20260505094302 | 60 | 267 | 15.0 | 29.0 | 0.00 | 0.00 | 0.00 | 58 | 1010.1 |
| 20260505093803 | 60 | 283 | 14.0 | 26.0 | 0.00 | 0.00 | 0.00 | 59 | 1010.2 |
| 20260505093303 | 60 | 291 | 17.0 | 31.0 | 0.00 | 0.00 | 0.00 | 57 | 1009.9 |
| 20260505092305 | 60 | 274 | 14.0 | 32.0 | 0.00 | 0.00 | 0.00 | 59 | 1010.0 |
| 20260505091802 | 60 | 272 | 14.0 | 25.0 | 0.00 | 0.00 | 0.00 | 59 | 1010.1 |
| 20260505091303 | 61 | 276 | 16.0 | 30.0 | 0.00 | 0.00 | 0.00 | 57 | 1010.0 |
| 20260505090802 | 61 | 263 | 13.0 | 25.0 | 0.00 | 0.00 | 0.00 | 59 | 1009.9 |
| 20260505090303 | 61 | 287 | 16.0 | 30.0 | 0.00 | 0.00 | 0.00 | 58 | 1010.0 |
| 20260505085802 | 61 | 280 | 15.0 | 30.0 | 0.00 | 0.00 | 0.00 | 58 | 1009.8 |
| 20260505084802 | 62 | 286 | 13.0 | 24.0 | 0.00 | 0.00 | 0.00 | 58 | 1009.7 |
| 20260505084303 | 62 | 268 | 14.0 | 26.0 | 0.00 | 0.00 | 0.00 | 58 | 1009.6 |
| 20260505083303 | 62 | 269 | 11.0 | 28.0 | 0.00 | 0.00 | 0.00 | 57 | 1009.7 |
| 20260505082803 | 63 | 266 | 10.0 | 23.0 | 0.00 | 0.00 | 0.00 | 57 | 1009.7 |
| 20260505082304 | 63 | 276 | 14.0 | 23.0 | 0.00 | 0.00 | 0.00 | 56 | 1009.7 |
| 20260505081803 | 63 | 256 | 11.0 | 21.0 | 0.00 | 0.00 | 0.00 | 56 | 1009.7 |
| 20260505081303 | 63 | 253 | 12.0 | 23.0 | 0.00 | 0.00 | 0.00 | 57 | 1009.6 |
| 20260505080802 | 63 | 255 | 9.0 | 20.0 | 0.00 | 0.00 | 0.00 | 56 | 1009.5 |
| 20260505080303 | 64 | 280 | 11.0 | 22.0 | 0.00 | 0.00 | 0.00 | 56 | 1009.5 |
| 20260505075803 | 64 | 280 | 10.0 | 21.0 | 0.00 | 0.00 | 0.00 | 56 | 1009.5 |
| 20260505075304 | 64 | 274 | 9.0 | 24.0 | 0.00 | 0.00 | 0.00 | 57 | 1009.3 |
| 20260505074303 | 64 | 263 | 10.0 | 17.0 | 0.00 | 0.00 | 0.00 | 57 | 1009.3 |
| 20260505073803 | 64 | 271 | 9.0 | 25.0 | 0.00 | 0.00 | 0.00 | 58 | 1009.3 |
| 20260505073303 | 64 | 270 | 11.0 | 24.0 | 0.00 | 0.00 | 0.00 | 58 | 1009.3 |
| 20260505072803 | 65 | 236 | 9.0 | 20.0 | 0.00 | 0.00 | 0.00 | 58 | 1009.2 |
| 20260505072305 | 65 | 278 | 11.0 | 21.0 | 0.00 | 0.00 | 0.00 | 57 | 1009.1 |
| 20260505071303 | 65 | 272 | 10.0 | 23.0 | 0.00 | 0.00 | 0.00 | 57 | 1009.1 |
| 20260505070802 | 65 | 292 | 10.0 | 21.0 | 0.00 | 0.00 | 0.00 | 57 | 1009.0 |
| 20260505070303 | 65 | 280 | 9.0 | 17.0 | 0.00 | 0.00 | 0.00 | 57 | 1009.0 |
| 20260505065803 | 65 | 265 | 10.0 | 18.0 | 0.00 | 0.00 | 0.00 | 58 | 1009.0 |
| 20260505065304 | 65 | 273 | 12.0 | 22.0 | 0.00 | 0.00 | 0.00 | 56 | 1008.9 |
| 20260505064804 | 65 | 274 | 6.0 | 17.0 | 0.00 | 0.00 | 0.00 | 58 | 1009.0 |
| 20260505064302 | 65 | 264 | 10.0 | 24.0 | 0.00 | 0.00 | 0.00 | 57 | 1008.9 |
| 20260505063302 | 66 | 279 | 12.0 | 22.0 | 0.00 | 0.00 | 0.00 | 57 | 1008.8 |
| 20260505062803 | 66 | 265 | 9.0 | 24.0 | 0.00 | 0.00 | 0.00 | 58 | 1008.8 |
| 20260505062304 | 66 | 276 | 9.0 | 23.0 | 0.00 | 0.00 | 0.00 | 57 | 1008.8 |
| 20260505061803 | 66 | 275 | 11.0 | 21.0 | 0.00 | 0.00 | 0.00 | 56 | 1008.7 |
| 20260505061303 | 66 | 272 | 11.0 | 20.0 | 0.00 | 0.00 | 0.00 | 57 | 1008.6 |
| 20260505060303 | 66 | 261 | 14.0 | 26.0 | 0.00 | 0.00 | 0.00 | 56 | 1008.6 |
| 20260505055803 | 66 | 272 | 10.0 | 25.0 | 0.00 | 0.00 | 0.00 | 56 | 1008.7 |
| 20260505055304 | 67 | 268 | 11.0 | 23.0 | 0.00 | 0.00 | 0.00 | 55 | 1008.7 |
| 20260505053803 | 67 | 275 | 9.0 | 20.0 | 0.00 | 0.00 | 0.00 | 55 | 1008.6 |
| 20260505053303 | 67 | 274 | 10.0 | 21.0 | 0.00 | 0.00 | 0.00 | 55 | 1008.5 |